Home   Weather   Buenaventura   Past weeks

Flag for Colombia Past Weather in Buenaventura, Colombia — Yesterday and Last 2 Weeks

Now
86 °F

Clear.


Feels Like: 85 °F
Forecast: 73 / 88 °F
Wind: 3 mph from Southeast

Location: Cali / Alfonso Bonillaaragon

Current Time: Jan 23, 2017 at 2:19:57 pm

Latest Report: Jan 23, 2017 at 2:00 pm


Visibility: N/A

Pressure: 29.97 "Hg

Humidity: 38%

Dew Point: 57 °F

Location of BuenaventuraLocation

Past Weather in Buenaventura — Graph

°F

Buenaventura Temperature Yesterday

Maximum temperature yesterday: 86 °F (at 4:00 pm)
Minimum temperature yesterday: 59 °F (at 3:00 am)
Average temperature yesterday: 71 °F

High & Low Weather Summary for the Past Weeks

 TemperatureHumidityPressure
High86 °F (Jan 12, 2:00 pm)100% (Jan 8, 10:00 pm)30.18 "Hg (Jan 8, 10:00 pm)
Low57 °F (Jan 23, 5:00 am)43% (Jan 22, 4:00 pm)29.84 "Hg (Jan 11, 4:00 pm)
Average73 °F82%29.99 "Hg
* Reported Jan 8 1:00 pm — Jan 23 1:00 pm, Buenaventura, Weather by CustomWeather, © 2017

Note: Actual official high and low records may vary slightly from our data, if they occured in-between our weather recording intervals... More about our weather records

Advertising

Buenaventura Weather History for the Previous 24 Hours

Scroll right to see more
 ConditionsComfort  
Time TempWeatherWind HumidityBarometerVisibility
1:00 pm
Mon, Jan 23
82 °FClear.3 mph45%30.00 "HgN/A
12:00 pm81 °FPassing clouds.5 mph48%30.05 "Hg6 mi
11:00 am79 °FClear.5 mph58%30.08 "HgN/A
10:00 am73 °FSunny.No wind65%30.10 "Hg10 mi
9:00 am68 °FSunny.3 mph78%30.11 "Hg10 mi
8:00 am64 °FThunderstorms. Sunny.5 mph83%30.10 "Hg10 mi
7:00 am57 °FSunny.1 mph100%30.08 "Hg10 mi
6:00 am57 °FPassing clouds.No wind100%30.05 "HgN/A
5:30 am59 °FPassing clouds.No wind100%30.05 "HgN/A
5:00 am57 °FPassing clouds.No wind100%30.04 "HgN/A
4:00 am59 °FPassing clouds.2 mph100%30.02 "HgN/A
3:00 am59 °FPassing clouds.5 mph100%30.02 "HgN/A
2:00 am61 °FPassing clouds.No wind94%30.03 "HgN/A
1:00 am63 °FPassing clouds.2 mph94%30.04 "HgN/A
12:00 am63 °FPassing clouds.3 mph100%30.05 "HgN/A
11:00 pm
Sun, Jan 22
64 °FPassing clouds.5 mph88%30.05 "HgN/A
10:00 pm68 °FPassing clouds.6 mph83%30.04 "HgN/A
9:00 pm68 °FPassing clouds.7 mph88%30.02 "HgN/A
8:00 pm72 °FPassing clouds.6 mph83%30.00 "HgN/A
7:00 pm79 °FPassing clouds.12 mph61%29.98 "HgN/A
6:00 pm81 °FScattered clouds.7 mph58%29.97 "HgN/A
5:00 pm81 °FScattered clouds.5 mph51%29.96 "HgN/A
4:00 pm86 °FScattered clouds.5 mph43%29.95 "HgN/A
3:00 pm84 °FScattered clouds.3 mph48%29.97 "HgN/A
2:00 pm84 °FScattered clouds.3 mph48%30.00 "HgN/A
Weather by CustomWeather, © 2017

See weather overviewHow to use our weather pages